Location: Kitchener
(43.4500°N, 80.5000°W)
Time: 13:16:33
(UTC-05:00)

N. Korean satellite - Visible Passes

Search period start: 22 November 2017 00:00
Search period end: 02 December 2017 00:00
Orbit: 460 x 514 km, 97.2° (Epoch: 21 November)

Date Brightness Start Highest point End Pass type
(mag) Time Alt. Az. Time Alt. Az. Time Alt. Az.
22 Nov 8.9 06:37:28 10° NNE 06:40:48 30° E 06:44:09 10° SSE visible
22 Nov 8.0 18:48:03 10° SSW 18:51:20 37° W 18:54:42 10° NNW visible
23 Nov 9.9 06:14:45 10° NE 06:17:11 16° E 06:19:37 10° SE visible
23 Nov 6.6 18:24:17 10° S 18:27:47 79° WSW 18:31:25 10° NNW visible
24 Nov 6.7 18:00:55 10° SSE 18:04:21 49° ENE 18:07:51 10° N visible
24 Nov 10.1 19:37:31 10° W 19:38:11 10° W 19:38:51 10° WNW visible
25 Nov 7.5 17:37:59 10° SE 17:40:58 26° ENE 17:44:00 10° NNE visible
25 Nov 9.3 19:11:48 10° SW 19:14:28 20° W 19:17:11 10° NW visible
26 Nov 8.9 06:37:00 10° NNE 06:40:21 30° E 06:43:42 10° SSE visible
26 Nov 8.0 18:47:30 10° SSW 18:50:50 38° W 18:54:15 10° NNW visible
27 Nov 9.9 06:14:16 10° NE 06:16:42 16° E 06:19:08 10° SE visible
27 Nov 6.6 18:23:44 10° S 18:27:16 80° WSW 18:30:56 10° NNW visible
28 Nov 6.7 18:00:22 10° SSE 18:03:49 49° ENE 18:07:21 10° N visible
28 Nov 10.1 19:36:47 10° WSW 19:37:39 11° W 19:38:31 10° WNW visible
29 Nov 7.4 06:59:40 10° NNE 07:03:24 59° E 07:07:07 10° S visible
29 Nov 7.6 17:37:24 10° SE 17:40:25 26° ENE 17:43:29 10° NNE visible
29 Nov 9.3 19:11:12 10° SW 19:13:55 20° W 19:16:41 10° NW visible
30 Nov 8.9 06:36:28 10° NNE 06:39:50 30° E 06:43:09 10° SSE visible
30 Nov 8.3 17:15:03 10° E 17:17:06 15° ENE 17:19:11 10° NNE visible
30 Nov 8.0 18:46:54 10° SSW 18:50:16 39° W 18:53:43 10° NNW visible
01 Dec 9.9 06:13:43 10° NE 06:16:09 16° E 06:18:34 10° SE visible
01 Dec 6.6 18:23:06 10° S 18:26:42 81° WSW 18:30:23 10° NNW visible
